Location: Croissy-Beaubourg
(48.8283°N, 2.6696°E)
Time: 22:54:22
(UTC+00:00)

Gbstr 26 Del rocket - Pass Details

Date: 16 October 2021
Orbit: 492 x 1263 km, 51.8° (Epoch: 07 December)

Event Time Altitude Azimuth Distance (km) Brightness Sun altitude
Rises 17:44:54 0° 285° (WNW) 3,661 8.6 -8.5°
Reaches altitude 10° 17:47:20 10° 287° (WNW) 2,816 7.7 -8.9°
Maximum altitude 17:54:18 78° 14° (NNE) 1,183 4.4 -10.1°
Enters shadow 18:01:35 13° 100° (E) 2,969 5.9 -11.3°
